Flag for Norway Weather past 2 weeks in Sandefjord, Norway

Now
64 °F

Sunny.


Feels Like: 64 °F
Forecast: 63 / 81 °F
Wind: No wind

Location: Torp

Current Time: Jul 24, 2014 at 6:43:07 AM

Latest Report: Jul 24, 2014 at 5:50 AM


Visibility: 10 mi

Pressure: 30.21 "Hg

Humidity: 73%

Dew point: 55 °F

Location of SandefjordLocation

Historic Weather in Sandefjord — Graph

°F

Sandefjord temperature yesterday

Maximum temperature yesterday: 90 °F (at 4:20 PM)
Minimum temperature yesterday: 61 °F (at 5:20 AM)
Average temperature yesterday: 76 °F

Past Weeks' High & Low Weather Summary

 TemperatureHumidityPressure
High90 °F (Jul 23, 4:20 PM)100% (Jul 14, 6:50 AM)30.30 "Hg (Jul 14, 6:50 AM)
Low52 °F (Jul 18, 4:50 AM)31% (Jul 12, 4:50 PM)29.62 "Hg (Jul 13, 8:50 PM)
Average68 °F65%30.02 "Hg
* Reported Jul 9 5:50 AM — Jul 24 5:20 AM, Sandefjord, Weather by CustomWeather, © 2014

Note: Actual official high and low records may vary slightly from our data, if they occured in-between our weather recording intervals... More about our weather records

Advertising

Sandefjord weather history for previous 24 hours

 ConditionsComfort  
Time TempWeatherWind HumidityBarometerVisibility
5:20 AM
Jul 24
64 °FPassing clouds.No wind73%30.21 "HgN/A
4:50 AM64 °FPassing clouds.1 mph73%30.21 "HgN/A
4:20 AM66 °FMild.3 mph73%30.24 "HgN/A
3:50 AM68 °FPassing clouds.1 mph69%30.24 "HgN/A
3:20 AM70 °FPassing clouds.1 mph60%30.21 "HgN/A
2:50 AM68 °FPassing clouds.No wind64%30.24 "HgN/A
2:20 AM70 °FPassing clouds.No wind57%30.21 "HgN/A
1:50 AM70 °FMild.No wind57%30.24 "HgN/A
1:20 AM72 °FMild.No wind53%30.24 "HgN/A
12:50 AM72 °FMild.2 mph53%30.24 "HgN/A
12:20 AM73 °FMild.No wind53%30.24 "HgN/A
11:50 PM
Jul 23
73 °FMild.No wind53%30.24 "HgN/A
11:20 PM73 °FMild.1 mph53%30.21 "HgN/A
10:50 PM73 °FSunny.2 mph57%30.21 "Hg10 mi
10:20 PM77 °FSunny.3 mph47%30.21 "Hg10 mi
9:50 PM77 °FSunny.6 mph51%30.21 "Hg10 mi
8:50 PM82 °FSunny.6 mph42%30.21 "Hg10 mi
8:20 PM84 °FSunny.8 mph40%30.21 "Hg10 mi
7:50 PM84 °FSunny.7 mph40%30.21 "Hg10 mi
7:20 PM86 °FSunny.6 mph35%30.21 "Hg10 mi
6:50 PM86 °FPassing clouds.7 mph38%30.21 "HgN/A
6:20 PM86 °FPassing clouds.3 mph38%30.21 "HgN/A
5:50 PM88 °FPassing clouds.5 mph35%30.21 "HgN/A
5:20 PM86 °FPassing clouds.3 mph38%30.21 "HgN/A
4:50 PM88 °FSunny.1 mph31%30.24 "Hg10 mi
4:20 PM90 °FSunny.1 mph33%30.24 "Hg10 mi
3:50 PM86 °FSunny.2 mph38%30.24 "Hg10 mi
3:20 PM86 °FPassing clouds.7 mph40%30.24 "HgN/A
2:50 PM86 °FSunny.2 mph43%30.27 "Hg10 mi
12:20 PM84 °FSunny.2 mph37%30.30 "Hg10 mi
11:50 AM84 °FSunny.2 mph40%30.30 "Hg10 mi
10:50 AM82 °FPassing clouds.3 mph45%30.30 "HgN/A
9:50 AM77 °FPassing clouds.5 mph54%30.30 "HgN/A
7:50 AM70 °FSunny.2 mph69%30.30 "Hg10 mi
7:20 AM68 °FSunny.1 mph69%30.30 "Hg10 mi
6:50 AM66 °FSunny.5 mph78%30.30 "Hg10 mi
6:20 AM64 °FSunny.3 mph78%30.30 "Hg10 mi
Weather by CustomWeather, © 2014

See weather overviewHow to use our weather pages